Regional Weather Roundup
Issued by NWS Wilmington, NC

Home | Current Version | Previous Version | Text Only | Print | Product List | Glossary On
Versions: 1 2 3 4 5 6 7 8 9 10 11 12 13 14 15 16 17 18 19 20 21 22 23 24 25 26 27 28 29 30 31 32 33 34 35 36 37 38 39 40 41 42 43 44 45 46 47 48 49 50
000
ASUS42 KILM 042113
RWRILM
RWRILM
REGIONAL HOURLY WEATHER ROUNDUP
NATIONAL WEATHER SERVICE WILMINGTON NC
500 PM EDT SAT JUL 04 2015

NOTE: "FAIR" INDICATES FEW OR NO CLOUDS BELOW 12,000 FEET WITH NO
SIGNIFICANT WEATHER AND/OR OBSTRUCTIONS TO VISIBILITY.

...............WFO WILMINGTON COUNTY WARNING AREA...............

......COASTAL NC AND SC COUNTIES......

CITY           SKY/WX    TMP DP  RH WIND       PRES   REMARKS
WILMINGTON     MOSUNNY   91  71  51 SW13      30.01F HX  97
N MYRTLE BEACH SUNNY     87  75  67 S20       30.02F HX  96
MYRTLE BEACH   MOSUNNY   91  66  43 SW9       30.05F HX  94

......INLAND NC AND SC COUNTIES.......

CITY           SKY/WX    TMP DP  RH WIND       PRES   REMARKS
LUMBERTON      MOSUNNY   88  68  51 SW14      29.99F HX  91
ELIZABETHTOWN  MOSUNNY   89  68  50 SW10      30.00F HX  92
WHITEVILLE     MOSUNNY   87  68  54 SW7       30.01F HX  90
FLORENCE       MOSUNNY   87  69  54 SW15      30.01F HX  91
DARLINGTON     SUNNY     88  66  48 SW13G21   30.01S HX  90

....................REST OF NORTH CAROLINA......................

.........EASTERN NC.........

CITY           SKY/WX    TMP DP  RH WIND       PRES   REMARKS
CAPE HATTERAS  SUNNY     81  73  76 SW17G25   29.99R
JACKSONVILLE   MOSUNNY   91  66  43 SW15G24   29.99F HX  94
MOREHEAD CITY  SUNNY     84  75  74 SW22G29   30.00F HX  92
KENANSVILLE    MOSUNNY   88  66  47 SW10G20   29.99S HX  90
NEW BERN       SUNNY     90  68  48 SW13G21   29.99S HX  94
ELIZABETH CITY CLOUDY    79  73  82 SW14      29.94S

.........CENTRAL NC.........

CITY           SKY/WX    TMP DP  RH WIND       PRES   REMARKS
RALEIGH DURHAM PTSUNNY   86  72  62 SW10      29.95F HX  92
ROCKY MOUNT    MOSUNNY   85  71  63 SW15G23   29.95F HX  90
ROANOKE RAPIDS NOT AVBL
FAYETTEVILLE   SUNNY     89  64  43 SW16G24   29.97F HX  90
HOFFMAN        SUNNY     87  66  49 W14G25    30.01F

.........WESTERN NC.........

CITY           SKY/WX    TMP DP  RH WIND       PRES   REMARKS
CHARLOTTE      PTSUNNY   87  65  47 W9        29.99F
GREENSBORO     PTSUNNY   86  65  49 W14G20    29.97R
HICKORY        NOT AVBL
BOONE          NOT AVBL
ASHEVILLE      NOT AVBL

.....................REST OF SOUTH CAROLINA.....................

.........EASTERN SC.........

CITY           SKY/WX    TMP DP  RH WIND       PRES   REMARKS
CHARLESTON     PTSUNNY   90  70  51 SW8       30.05S HX  95
BEAUFORT MCAS  MOSUNNY   91  70  49 SW7       30.06R HX  96
HILTON HEAD    MOSUNNY   88  79  74 SE6G16    30.08R HX 102

.........CENTRAL SC.........

CITY           SKY/WX    TMP DP  RH WIND       PRES   REMARKS
COLUMBIA       MOSUNNY   88  67  49 SW14      30.02S HX  91
ORANGEBURG     SUNNY     88  69  53 SW9       30.04S HX  92
SUMTER SHAW    MOSUNNY   88  70  55 SW12      30.01R HX  93

.........WESTERN SC.........

CITY           SKY/WX    TMP DP  RH WIND       PRES   REMARKS
GREENVILLE     NOT AVBL
ROCK HILL      MOSUNNY   87  66  49 SW13      30.00S
ANDERSON       MOSUNNY   82  68  62 SW13      30.04S
CLEMSON        NOT AVBL
GREENWOOD      SUNNY     83  69  62 SW13      30.06S


...................COASTAL AND OFFSHORE REPORTS..................

................LOCAL PIERS AND NC RESERVE................


STATION/POSITION TIME  SKY/WX   TEMP    WIND        PRES    VSBY
                                AIR SEA DIR/SP/G
                 (UTC)          (F)     (DEG/KT/KT) (MB)    (MI)
JOHNY MRCER PIER 2000            82 80  190/ 20/ 24 1016.0F
NC RESRV MASNBRO NOT AVBL
OCEAN CREST PIER NOT AVBL
SPRINGMAID  PIER 2000            88 82  210/ 12/ 16 1017.2F


................COASTAL AND OFFSHORE BUOYS................


STATION/POSITION TIME  SKY/WX   TEMP    WIND        PRES    VSBY
                                AIR SEA DIR/SP/G
                 (UTC)          (F)     (DEG/KT/KT) (MB)    (MI)
DIMNDSHOAL 41025 2050            81 82  230/ 23/ 29 1015.2S
WVE H/P(F/S)=  7/ 7 WND WVE H/P(F/S)=  7/ 7 SWL H/P/D(F/S/D)=  2/170/14

CAPE LOOKOUT     2100            83     220/ 13/ 16 1015.9F
ONSLOW BAY 41036 NOT AVBL
5 WRITEBCH 41038 2008            80 79  210/ 16/ 19 1016.7F
MASONBORO  41110 2019               79                N/A
WVE H/P(F/S)=  3/ 4 WND WVE H/P(F/S)=  3/ 4

WILM HARBR 41108 2011               82                N/A
WVE H/P(F/S)=  4/ 6 WND WVE H/P(F/S)=  3/ 6

27WRITEBCH 41037 2000               80  240/ 16/ 19   N/A
FRYING PAN 41013 2050            81 79  200/ 14/ 16 1018.0F
WVE H/P(F/S)=  4/ 6 WND WVE H/P(F/S)=  3/ 6 SWL H/P/D(F/S/D)=  2/130/ 9

SUNST NRSH 41024 NOT AVBL
CAPRS NRSH 41029 2008            82     210/ 16/ 19 1018.2F
EDISTO     41004 2050            82 82  220/ 14/ 16 1017.9R
WVE H/P(F/S)=  3/ 9 WND WVE H/P(F/S)=  3/ 5 SWL H/P/D(F/S/D)=  2/ 9



..........OFFSHORE BUOYS BEYOND 100 NM OFFSHORE...........
.....IN A TRIANGLE---HAT TO BERMUDA TO BAHAMAS TO HAT.....


STATION/POSITION TIME  SKY/WX   TEMP    WIND        PRES    VSBY
                                AIR SEA DIR/SP/G
                 (UTC)          (F)     (DEG/KT/KT) (MB)    (MI)
150E HAT   41001 NOT AVBL
W BERMUDA  41048 2050            82 81  230/ 12/ 14 1022.6F
WVE H/P(F/S)=  4/ 7 WND WVE H/P(F/S)=  3/ 5 SWL H/P/D(F/S/D)=  3/280/ 7

ATLANTIC S 41049 2050            83 84  100/  8/ 10 1024.5S
WVE H/P(F/S)=  4/ 8 WND WVE H/P(F/S)=  2/ 3 SWL H/P/D(F/S/D)=  3/120/ 8

E BAHAMAS  41046 2050            83 83  110/ 12/ 16 1021.2F
WVE H/P(F/S)=  6/ 7 WND WVE H/P(F/S)=  3/ 4 SWL H/P/D(F/S/D)=  5/130/ 7

NE BAHAMAS 41047 2050            83 84  150/ 10/ 10 1021.9F
WVE H/P(F/S)=  4/ 8 WND WVE H/P(F/S)=  2/ 3 SWL H/P/D(F/S/D)=  3/130/ 8

120E CANVRL41010 2020            84 85  160/  6/  8 1020.7F

END


USA.gov is the U.S. government's official web portal to all federal, state and local government web resources and services.